Location: ?????????
(54.7630°N, 39.4991°E)
Time: 22:45:50
(UTC+00:00)

MOZ.5/SAFIR/RUBIN 5/SL-8 - Pass Details

Date: 14 April 2026
Orbit: 665 x 693 km, 98.3° (Epoch: 13 May)

Event Time Altitude Azimuth Distance (km) Brightness Sun altitude
Exits shadow 23:33:26 29° 163° (SSE) 1,262 4.8 -19.9°
Maximum altitude 23:35:52 90° 190° (S) 696 3.7 -19.7°
Drops below altitude 10° 23:40:34 10° 344° (NNW) 2,142 6.8 -19.3°
Sets 23:42:49 0° 345° (NNW) 3,058 7.7 -19.1°
